Regional Weather Roundup
Issued by NWS Goodland, KS

Home | Current Version | Previous Version | Text Only | Print | Product List | Glossary Off
Versions: 1 2 3 4 5 6 7 8 9 10 11 12 13 14 15 16 17 18 19 20 21 22 23 24 25 26 27 28 29 30 31 32 33 34 35 36 37 38 39 40 41 42 43 44 45 46 47 48 49 50

000
ASUS43 KGLD 161908
RWRGLD

GOODLAND FORECAST AREA HOURLY WEATHER ROUNDUP
NATIONAL WEATHER SERVICE GOODLAND KS
100 PM MDT TUE SEP 16 2014

...OFFICIAL OBSERVATIONS...

CITY           SKY/WX    TMP DP  RH WIND       PRES   REMARKS
GOODLAND KS    SUNNY     77  55  46 SW14G23   30.07F
HILL CITY KS   CLOUDY    69  56  62 S12G21    30.09F
IMPERIAL NEB   SUNNY     79  54  41 SW13G18   30.02F
MCCOOK NEB     MOSUNNY   73  56  54 S14G23    30.05F
AKRON CO       SUNNY     82  43  25 W6        30.10F
BURLINGTON CO  SUNNY     83  52  34 SW9       30.09F
LIMON CO       SUNNY     85  34  16 N14       30.16F
$$

...UNOFFICIAL OBSERVATIONS...

CITY           SKY/WX    TMP DP  RH WIND       PRES   REMARKS
COLBY KS       SUNNY     75  61  60 S12G21    30.07F
GOVE KS          N/A     70  32  24 MISG        N/A
NORTON KS      CLOUDY    70  52  52 S15       30.08F
SHARON SPRINGS   N/A     78  60  53 S12         N/A
WAKEENEY KS      N/A     67  55  64 MISG        N/A
TRENTON NEB      N/A     76  32  20 SE15        N/A
YUMA CO          N/A     85  43  22 W9          N/A
$$


USA.gov is the U.S. government's official web portal to all federal, state and local government web resources and services.